Starlink 31322

operational
NORAD ID: 59168 Int'l Des: 2024-044 Owner: SPXS Country: US Constellation: starlink
LEOCIRCULAR

About Starlink 31322

Description loading...

Live Position

Loading 3D Globe...

Upcoming Passes

Altitude History

Altitude vs Time

uPlot chart will show altitude changes over time

Two-Line Element Set

1 59168U 24044S 25348.69905393 .00000273 00000-0 19427-4 0 9998
2 59168 42.9969 227.3253 0000825 256.1385 103.9375 15.27566946100593
Epoch: Dec 14, 2025 • Age: 17 hours

Current Status

Altitude 483.3 km
Velocity 7.63 km/s
Sub-Earth Point -2.60°S, 14.17°W
Launch Date Mar 4, 2024
Age 1.7 years
Type internet

Technical Details

Classification Payload
Mass 730.00 kg
Dry Mass 700.00 kg
Total Mass 730.00 kg
Length 0.30 m
Diameter 4.10 m
Span 29.00 m
Shape Box + pan
Manufacturer SPXS
Bus Type Starlink V2M
Phase Status In Orbit
Owner/State SPXS/US

Large Constellations

Loading constellations...